Location: New Frontier Mobile Home Park
(32.8448°N, 116.9675°W)
Time: 22:55:34
(UTC+00:00)

Cosmos 1378 - Pass Details

Date: 14 July 2020
Orbit: 493 x 500 km, 82.5° (Epoch: 05 August)

Event Time Altitude Azimuth Distance (km) Brightness Sun altitude
Rises 11:22:40 0° 342° (NNW) 2,597 7.1 -16.2°
Reaches altitude 10° 11:24:55 10° 333° (NNW) 1,709 6.0 -15.9°
Maximum altitude 11:28:18 33° 268° (W) 855 3.9 -15.3°
Enters shadow 11:29:09 29° 240° (WSW) 930 3.9 -15.2°
